DW6277 Weather Reports


Display with metric or nautical units.
time (UTC)temp
F
wind
direction
speed
MPH
gust
MPH
rain 1hr
in
rain 24hr
in
rain mn
in
humidity
%
barometer
mb
20260904211910 65 318 3.0 7.0 0.00 0.00 0.00 68 1015.9
20260904210903 64 348 3.0 7.0 0.00 0.00 0.00 68 1015.9
20260904205920 64 352 2.0 5.0 0.00 0.00 0.00 68 1015.8
20260904202620 65 340 1.0 11.0 0.00 0.00 0.00 65 1015.6
20260904200437 65 319 3.0 9.0 0.00 0.00 0.00 66 1015.8
20260904195446 64 314 3.0 7.0 0.00 0.00 0.00 66 1015.8
20260904194412 64 307 3.0 8.0 0.00 0.00 0.00 66 1015.9
20260904193416 63 324 3.0 8.0 0.00 0.00 0.00 68 1015.9
20260904192424 63 313 3.0 7.0 0.00 0.00 0.00 69 1016.0
20260904191406 63 309 3.0 8.0 0.00 0.00 0.00 70 1016.0
20260904185241 61 354 3.0 8.0 0.00 0.00 0.00 73 1015.8
20260904184239 61 340 3.0 8.0 0.00 0.00 0.00 73 1015.7
20260904183231 61 295 4.0 11.0 0.00 0.00 0.00 73 1015.7
20260904182235 61 293 4.0 11.0 0.00 0.00 0.00 73 1015.7
20260904181212 60 310 4.0 11.0 0.00 0.00 0.00 73 1015.6
20260904180157 61 290 4.0 11.0 0.00 0.00 0.00 73 1015.7
20260904175134 60 311 4.0 10.0 0.00 0.00 0.00 74 1015.8
20260904174141 60 306 4.0 10.0 0.00 0.00 0.00 76 1015.8
20260904172135 58 312 2.0 5.0 0.00 0.00 0.00 80 1015.9
20260904171117 58 318 2.0 6.0 0.00 0.00 0.00 81 1015.9
20260904170110 58 348 2.0 6.0 0.00 0.00 0.00 81 1016.1
20260904165051 58 354 2.0 5.0 0.00 0.00 0.00 82 1016.2
20260904164108 58 311 1.0 4.0 0.00 0.00 0.00 82 1016.4
20260904163107 58 326 1.0 4.0 0.00 0.00 0.00 81 1016.5
20260904162127 58 323 1.0 5.0 0.00 0.00 0.00 81 1016.7
20260904161148 59 309 1.0 5.0 0.00 0.00 0.00 81 1017.0
20260904160130 59 308 1.0 4.0 0.00 0.00 0.00 80 1017.0
20260904155128 59 327 1.0 4.0 0.00 0.00 0.00 80 1017.2
20260904154111 60 319 1.0 4.0 0.00 0.00 0.00 80 1017.4
20260904153126 60 321 1.0 3.0 0.00 0.00 0.00 80 1017.5
20260904152056 60 320 1.0 4.0 0.00 0.00 0.00 80 1017.5
20260904151043 60 320 2.0 5.0 0.00 0.00 0.00 80 1017.6
20260904150008 60 345 1.0 5.0 0.00 0.00 0.00 80 1017.5
20260904145017 60 330 1.0 4.0 0.00 0.00 0.00 79 1017.6
20260904143947 61 319 0.0 4.0 0.00 0.00 0.00 79 1017.7
20260904141911 61 327 0.0 2.0 0.00 0.00 0.00 81 1017.8
20260904140856 61 325 0.0 2.0 0.00 0.00 0.00 81 1017.7
20260904135900 61 325 0.0 4.0 0.00 0.00 0.00 82 1017.7
20260904134833 61 314 1.0 4.0 0.00 0.00 0.00 82 1017.7
20260904132745 61 325 0.0 3.0 0.00 0.00 0.00 82 1017.8
20260904131724 61 331 1.0 3.0 0.00 0.00 0.00 82 1017.7
20260904125613 61 319 1.0 4.0 0.00 0.00 0.00 82 1017.8
20260904124630 62 331 1.0 6.0 0.00 0.00 0.00 82 1017.7
20260904122519 62 318 1.0 3.0 0.00 0.00 0.00 81 1018.0
20260904121457 62 353 1.0 3.0 0.00 0.00 0.00 81 1017.9
20260904120511 63 306 1.0 4.0 0.00 0.00 0.00 81 1018.1
20260904115533 62 289 1.0 5.0 0.00 0.00 0.00 81 1018.0
20260904114526 62 329 1.0 5.0 0.00 0.00 0.00 81 1018.1
20260904113458 62 319 1.0 3.0 0.00 0.00 0.00 80 1018.1
20260904111327 63 319 1.0 4.0 0.00 0.00 0.00 80 1018.2
20260904105159 63 309 2.0 4.0 0.00 0.00 0.00 80 1017.9
20260904104218 63 321 1.0 4.0 0.00 0.00 0.00 80 1017.8
20260904102041 63 314 1.0 4.0 0.00 0.00 0.00 80 1017.6
20260904101034 63 309 1.0 4.0 0.00 0.00 0.00 80 1017.5
20260904100056 63 316 1.0 3.0 0.00 0.00 0.00 80 1017.4
20260904095053 64 321 0.0 3.0 0.00 0.00 0.00 80 1017.4
20260904094049 64 330 0.0 2.0 0.00 0.00 0.00 80 1017.3
20260904093023 64 318 0.0 2.0 0.00 0.00 0.00 80 1017.2
20260904091956 64 340 0.0 2.0 0.00 0.00 0.00 80 1017.1
20260904090932 64 341 0.0 4.0 0.00 0.00 0.00 79 1017.1
20260904085931 64 352 0.0 4.0 0.00 0.00 0.00 79 1017.1
20260904084940 64 12 1.0 3.0 0.00 0.00 0.00 78 1017.0
20260904083906 65 18 0.0 2.0 0.00 0.00 0.00 77 1017.0
20260904082842 65 338 0.0 5.0 0.00 0.00 0.00 76 1017.0
20260904081831 65 18 1.0 5.0 0.00 0.00 0.00 76 1016.9
20260904080818 65 23 1.0 5.0 0.00 0.00 0.00 76 1016.8
20260904075758 65 30 1.0 6.0 0.00 0.00 0.00 78 1016.6
20260904073701 66 15 1.0 6.0 0.00 0.00 0.00 77 1016.7
20260904072636 66 38 1.0 6.0 0.00 0.00 0.00 77 1016.7
20260904071611 66 268 1.0 6.0 0.00 0.00 0.00 76 1016.4
20260904070626 66 57 3.0 11.0 0.00 0.00 0.00 77 1016.3
20260904065635 66 39 4.0 11.0 0.00 0.00 0.00 76 1016.4
20260904064634 66 359 3.0 10.0 0.00 0.00 0.00 74 1016.5
20260904063614 66 49 3.0 7.0 0.00 0.00 0.00 74 1016.4
20260904062553 67 46 2.0 7.0 0.00 0.00 0.00 74 1016.5
20260904060441 68 64 2.0 7.0 0.00 0.00 0.00 71 1016.4
20260904055504 68 57 2.0 9.0 0.00 0.00 0.00 70 1016.6
20260904054449 68 67 3.0 9.0 0.00 0.00 0.00 71 1016.6
20260904053504 68 87 3.0 7.0 0.00 0.00 0.00 70 1016.6
20260904052518 69 58 1.0 5.0 0.00 0.00 0.00 69 1016.7
20260904051521 69 91 2.0 8.0 0.00 0.00 0.00 68 1017.0
20260904045352 69 48 2.0 7.0 0.00 0.00 0.00 67 1016.8
20260904043255 70 108 1.0 5.0 0.00 0.00 0.00 65 1017.2
20260904034933 70 97 2.0 6.0 0.00 0.00 0.00 61 1017.5
20260904033955 70 113 1.0 6.0 0.00 0.00 0.00 61 1017.6
20260904032013 70 51 2.0 6.0 0.00 0.00 0.00 61 1017.9
20260904030940 69 86 2.0 7.0 0.00 0.00 0.00 63 1017.9
20260904025958 69 115 3.0 7.0 0.00 0.00 0.00 64 1018.2
20260904024928 69 117 2.0 7.0 0.00 0.00 0.00 62 1018.4
20260904023946 69 120 2.0 5.0 0.00 0.00 0.00 61 1018.6
20260904023002 69 91 2.0 5.0 0.00 0.00 0.00 60 1018.8
20260904022021 69 117 2.0 5.0 0.00 0.00 0.00 60 1019.0
20260904021000 70 124 1.0 6.0 0.00 0.00 0.00 60 1019.3
20260904015931 69 142 1.0 6.0 0.00 0.00 0.00 61 1019.6
20260904013802 70 105 1.0 5.0 0.00 0.00 0.00 60 1019.7
20260904012744 69 111 2.0 7.0 0.00 0.00 0.00 62 1019.8
20260904011732 69 148 3.0 7.0 0.00 0.00 0.00 62 1019.9
20260904010722 69 103 4.0 8.0 0.00 0.00 0.00 58 1020.1
20260904005648 68 119 4.0 8.0 0.00 0.00 0.00 60 1020.3
20260904003635 72 181 1.0 7.0 0.00 0.00 0.00 54 1020.8
20260904002618 71 180 2.0 7.0 0.00 0.00 0.00 54 1020.9
20260904000436 71 179 2.0 8.0 0.00 0.00 0.00 54 1021.0
20260903235422 71 157 2.0 8.0 0.00 0.00 0.00 53 1021.0
20260903234440 71 179 2.0 7.0 0.00 0.00 0.00 53 1021.2
20260903233430 70 250 2.0 6.0 0.00 0.00 0.00 54 1021.2
20260903231245 70 254 1.0 7.0 0.00 0.00 0.00 54 1021.4
20260903230245 69 257 2.0 10.0 0.00 0.00 0.00 55 1021.3
20260903225247 68 234 2.0 10.0 0.00 0.00 0.00 56 1021.3
20260903224256 68 222 3.0 8.0 0.00 0.00 0.00 55 1021.4
20260903223227 68 214 2.0 7.0 0.00 0.00 0.00 56 1021.3
20260903222206 67 216 2.0 8.0 0.00 0.00 0.00 57 1021.3
20260903221144 66 228 3.0 8.0 0.00 0.00 0.00 58 1021.2
20260903220121 66 272 2.0 6.0 0.00 0.00 0.00 58 1021.1
20260903215117 66 236 1.0 5.0 0.00 0.00 0.00 59 1021.0
20260903214050 65 243 0.0 4.0 0.00 0.00 0.00 63 1021.0
20260903213037 63 250 0.0 1.0 0.00 0.00 0.00 69 1020.9